Regional Weather Roundup
Issued by NWS

Current Version | Previous Version | Text Only | Print | Product List | Glossary On
Versions: 1 2 3 4 5 6 7 8 9 10 11 12 13 14 15 16 17 18 19 20 21 22 23 24 25 26 27 28 29 30 31 32 33 34 35 36 37 38 39 40 41 42 43 44 45 46 47 48 49 50
971
ASUS44 KBMX 112210
RWRAL

ALABAMA REGIONAL WEATHER ROUNDUP
NATIONAL WEATHER SERVICE BIRMINGHAM AL
400 PM CST TUE DEC 11 2018

NOTE: "FAIR" INDICATES FEW OR NO CLOUDS BELOW 12,000 FEET
WITH NO SIGNIFICANT WEATHER AND/OR OBSTRUCTIONS TO VISIBILITY.

THE REMARK "TC" DENOTES TEMPERATURE IN DEGREES CELSIUS.

ALZ001>011-014-016>018-020-112300-
NORTH ALABAMA

CITY           SKY/WX    TMP DP  RH WIND       PRES   REMARKS
MUSCLE SHOALS  FAIR      48  27  44 SW9       30.29F
HUNTSVILLE     FAIR      46  29  51 CALM      30.29S
DECATUR        FAIR      45  31  58 SE3       30.29F
HALEYVILLE     FAIR      44  19  36 SW5       30.31S
GADSDEN        FAIR      48  26  42 NW5       30.30S
$$

ALZ012-013-022-023-030>036-040>044-112300-
WEST CENTRAL ALABAMA

CITY           SKY/WX    TMP DP  RH WIND       PRES   REMARKS
TUSCALOOSA     FAIR      49  28  44 CALM      30.33F
DEMOPOLIS      FAIR      49  27  41 CALM      30.34S
$$

ALZ015-024>026-033>036-041>044-112300-
CENTRAL ALABAMA

CITY           SKY/WX    TMP DP  RH WIND       PRES   REMARKS
BIRMINGHAM     FAIR      47  27  45 NW5       30.32F
MONTGOMERY     FAIR      51  28  41 W7        30.32S
SHELBY CO ARPT FAIR      47  27  45 W3        30.30F
MAXWELL AFB    FAIR      51  27  38 SW7       30.31S
GREENVILLE     FAIR      54  22  28 NW3       30.30F
SELMA            N/A     50  28  43 CALM      30.33S
PRATTVILLE     FAIR      51  25  35 W6        30.32R
BESSEMER       FAIR      47  26  44 W5        30.32S
TALLADEGA      FAIR      49  26  40 CALM      30.31S
PELL CITY      CLEAR     50  27  40 SW6       30.31S
MARION         FAIR      49  32  50 CALM      30.33F
SYLACAUGA      FAIR      49  32  52 W5        30.31S
$$

ALZ019-021-028-029-037-038-045>048-112300-
EAST CENTRAL ALABAMA

CITY           SKY/WX    TMP DP  RH WIND       PRES   REMARKS
ANNISTON       FAIR      48  29  47 SW7       30.30R
ALEXANDER CITY FAIR      50  32  49 W3        30.30S
AUBURN         FAIR      51  29  42 W7        30.30
$$

ALZ051>064-112300-
SOUTHWEST ALABAMA

CITY           SKY/WX    TMP DP  RH WIND       PRES   REMARKS
MOBILE         FAIR      55  31  39 W3        30.33F
BROOKLEY FIELD FAIR      55  35  47 CALM      30.35S
EVERGREEN      FAIR      55  31  39 N3        30.33R
$$

ALZ049-050-065>069-112300-
SOUTHEAST ALABAMA

CITY           SKY/WX    TMP DP  RH WIND       PRES   REMARKS
DOTHAN         FAIR      53  30  41 W9        30.33R
OZARK          FAIR      53  32  44 NW6       30.29F
TROY           FAIR      52  26  36 W3        30.31S
EUFAULA        FAIR      54  33  45 VRB5      30.29R
$$




USA.gov is the U.S. government's official web portal to all federal, state and local government web resources and services.